Location: Chervonnoye
(48.6000°N, 34.4000°E)
Time: 16:33:04
(UTC+00:00)

Cosmos 2219 Rocket - Pass Details

Date: 23 November 2020
Orbit: 829 x 845 km, 71.0° (Epoch: 28 January)

Event Time Altitude Azimuth Distance (km) Brightness Sun altitude
Rises 14:23:58 0° 198° (SSW) 3,385 6.1 -5.1°
Reaches altitude 10° 14:26:25 10° 197° (SSW) 2,453 5.3 -5.5°
Maximum altitude 14:32:01 71° 114° (ESE) 889 2.2 -6.3°
Drops below altitude 10° 14:37:37 10° 32° (NNE) 2,459 4.1 -7.2°
Enters shadow 14:39:31 - 30° (NNE) 3,185 4.7 -7.5°
